Satellite: SRMSAT Catalog number: 37841 Epoch time: 12173.61246679 Element set: 171 Inclination: 019.9737 deg RA of node: 336.3916 deg Eccentricity: 0.0012198 Arg of perigee: 240.0653 deg Mean anomaly: 119.8593 deg Mean motion: 14.10145172 rev/day Decay rate: 2.64e-06 rev/day^2 Epoch rev: 3581 Checksum: 295
Satellite: RAX-2 Catalog number: 37853 Epoch time: 12172.83705496 Element set: 0224 Inclination: 101.7130 deg RA of node: 214.6845 deg Eccentricity: 0.0246637 Arg of perigee: 340.5836 deg Mean anomaly: 018.6083 deg Mean motion: 14.80094899 rev/day Decay rate: 2.830e-05 rev/day^2 Epoch rev: 03494 Checksum: 311
Satellite: AUBIESAT Catalog number: 37854 Epoch time: 12172.85845483 Element set: 0219 Inclination: 101.7142 deg RA of node: 214.9655 deg Eccentricity: 0.0247227 Arg of perigee: 339.9275 deg Mean anomaly: 019.2331 deg Mean motion: 14.80485375 rev/day Decay rate: 3.569e-05 rev/day^2 Epoch rev: 03493 Checksum: 321
Satellite: HRBE Catalog number: 37855 Epoch time: 12172.80486426 Element set: 0215 Inclination: 101.7160 deg RA of node: 214.8462 deg Eccentricity: 0.0248010 Arg of perigee: 340.1091 deg Mean anomaly: 019.0495 deg Mean motion: 14.80336597 rev/day Decay rate: 3.173e-05 rev/day^2 Epoch rev: 03492 Checksum: 277
Satellite: RS-39 Catalog number: 38051 Epoch time: 12173.77543609 Element set: 443 Inclination: 051.6406 deg RA of node: 137.9690 deg Eccentricity: 0.0013758 Arg of perigee: 055.2883 deg Mean anomaly: 015.6426 deg Mean motion: 15.24441930 rev/day Decay rate: 9.420e-05 rev/day^2 Epoch rev: 2267 Checksum: 305
Satellite: E-STAR Catalog number: 38079 Epoch time: 12173.75879981 Element set: 304 Inclination: 069.4921 deg RA of node: 305.2305 deg Eccentricity: 0.0743639 Arg of perigee: 242.1656 deg Mean anomaly: 110.1917 deg Mean motion: 14.14996744 rev/day Decay rate: 2.2595e-04 rev/day^2 Epoch rev: 1823 Checksum: 323
Satellite: GOLIAT Catalog number: 38085 Epoch time: 12173.75351498 Element set: 278 Inclination: 069.4908 deg RA of node: 305.5171 deg Eccentricity: 0.0749041 Arg of perigee: 242.3556 deg Mean anomaly: 109.9286 deg Mean motion: 14.14019890 rev/day Decay rate: 2.1900e-04 rev/day^2 Epoch rev: 1822 Checksum: 311
Satellite: HORYU-2 Catalog number: 38340 Epoch time: 12173.38720398 Element set: 35 Inclination: 098.1766 deg RA of node: 113.1253 deg Eccentricity: 0.0012358 Arg of perigee: 321.3943 deg Mean anomaly: 038.6371 deg Mean motion: 14.69995866 rev/day Decay rate: 9.29e-06 rev/day^2 Epoch rev: 509 Checksum: 314
/EX
participants (1)
-
Ray Hoad